Grand Island, NE

1:39 AM CST on December 11, 2016 (GMT -0600)
Central Nebraska Regional

Weather History for KGRI - October, 2011

Change the Weather History Date:

Friday, October 14, 2011

  Actual Average Record
Temperature  
Mean Temperature 51 °F 53 °F  
Max Temperature 64 °F 66 °F 89 °F (1897)
Min Temperature 38 °F 40 °F 24 °F (1969)
Degree Days  
Heating Degree Days 14 12  
Month to date heating degree days 48 141  
Since 1 July heating degree days 209 256  
Cooling Degree Days 0 0  
Month to date cooling degree days 24 10  
Year to date cooling degree days 1112 1033  
Growing Degree Days 2 (Base 50)    
Moisture  
Dew Point 31 °F    
Average Humidity 45    
Maximum Humidity 67    
Minimum Humidity 23    
Precipitation  
Precipitation 0.00 in 0.07 in 1.36 in (2013)
Month to date precipitation 2.15 0.94  
Year to date precipitation 25.79 23.94  
Snow  
Snow 0.00 in 0.00 in 0.50 in (1966)
Month to date snowfall 0.0 0.2  
Since 1 July snowfall 0.0 0.3  
Since 1 September snowfall 0.0 0.3  
Snow Depth 0.00 in    
Sea Level Pressure  
Sea Level Pressure 30.03 in    
Wind  
Wind Speed 9 mph (NW)    
Max Wind Speed 23 mph    
Max Gust Speed 29 mph    
Visibility 10 miles    
Events      
T = Trace of Precipitation, MM = Missing Value Source: NWS Daily Summary

Daily Weather History Graph

Daily Weather History Graph

Search for Another Location

Airport or City:

Trip Planner

Search our weather history database for the weather conditions in past years. The results will help you decide how hot, cold, wet, or windy it might be!

Date:

Astronomy

Oct. 14, 2011 Rise Set
Actual Time 7:43 AM CDT 6:54 PM CDT
Civil Twilight 7:15 AM CDT 7:22 PM CDT
Nautical Twilight 6:43 AM CDT 7:54 PM CDT
Astronomical Twilight 6:11 AM CDT 8:25 PM CDT
Moon 8:07 PM CDT (10/14) 10:14 AM CDT (10/14)
Length of Visible Light 12h 06m
Length of Day
11h 11m
Waning Gibbous, 94% of the Moon is Illuminated
Oct 14
Waning Gibbous
Oct 19
Last Quarter
Oct 26
New
Nov 2
First Quarter
Nov 10
Full

Hourly Weather History & Observations

Time (CDT) Temp. Windchill Dew Point Humidity Pressure Visibility Wind Dir Wind Speed Gust Speed Precip Events Conditions
12:53 AM 48.9 °F - 37.0 °F 64% 29.92 in 10.0 mi WNW 8.1 mph - N/A   Clear
1:53 AM 48.9 °F - 37.0 °F 64% 29.93 in 10.0 mi WNW 9.2 mph - N/A   Clear
2:53 AM 48.9 °F - 36.0 °F 61% 29.95 in 10.0 mi WNW 4.6 mph - N/A   Clear
3:53 AM 46.9 °F - 33.1 °F 59% 29.96 in 10.0 mi NW 8.1 mph - N/A   Clear
4:53 AM 45.0 °F 41.2 °F 32.0 °F 60% 29.97 in 7.0 mi NW 6.9 mph - N/A   Clear
5:53 AM 46.0 °F 42.5 °F 33.1 °F 61% 29.99 in 10.0 mi NW 6.9 mph - N/A   Clear
6:53 AM 48.0 °F - 33.1 °F 56% 29.99 in 10.0 mi NNW 10.4 mph - N/A   Clear
7:53 AM 46.4 °F 42.9 °F 33.8 °F 62% 30.01 in 10.0 mi NW 6.9 mph - N/A   Clear
8:53 AM 48.9 °F - 35.1 °F 59% 30.03 in 10.0 mi NW 8.1 mph - N/A   Clear
9:53 AM 52.0 °F - 34.0 °F 50% 30.06 in 10.0 mi NW 10.4 mph - N/A   Mostly Cloudy
10:53 AM 57.2 °F - 33.8 °F 41% 30.07 in 10.0 mi NW 16.1 mph - N/A   Clear
11:53 AM 59.0 °F - 33.1 °F 38% 30.07 in 10.0 mi NNW 11.5 mph - N/A   Clear
12:53 PM 60.1 °F - 30.0 °F 32% 30.07 in 10.0 mi NNW 17.3 mph 26.5 mph N/A   Clear
1:12 PM 60.8 °F - 30.2 °F 31% 30.06 in 10.0 mi North 18.4 mph 28.8 mph N/A   Partly Cloudy
1:53 PM 62.6 °F - 30.2 °F 30% 30.06 in 10.0 mi NNW 18.4 mph - N/A   Clear
2:53 PM 63.0 °F - 28.0 °F 27% 30.04 in 10.0 mi NNW 17.3 mph 25.3 mph N/A   Clear
3:53 PM 62.1 °F - 25.0 °F 24% 30.03 in 10.0 mi NNW 12.7 mph - N/A   Clear
4:53 PM 62.1 °F - 27.0 °F 26% 30.04 in 10.0 mi NNW 16.1 mph 23.0 mph N/A   Partly Cloudy
5:53 PM 60.1 °F - 25.0 °F 26% 30.06 in 10.0 mi NNW 15.0 mph 20.7 mph N/A   Overcast
6:53 PM 54.0 °F - 28.0 °F 37% 30.07 in 10.0 mi NNW 8.1 mph - N/A   Mostly Cloudy
7:53 PM 51.1 °F - 28.0 °F 41% 30.09 in 10.0 mi NNW 6.9 mph - N/A   Clear
8:53 PM 46.0 °F 43.1 °F 28.9 °F 51% 30.09 in 10.0 mi NNW 5.8 mph - N/A   Clear
9:53 PM 42.1 °F 40.2 °F 32.0 °F 67% 30.10 in 10.0 mi WNW 3.5 mph - N/A   Clear
10:53 PM 43.0 °F - 32.0 °F 65% 30.10 in 10.0 mi Calm Calm - N/A   Clear
11:53 PM 42.8 °F - 32.0 °F 66% 30.09 in 10.0 mi Calm Calm - N/A   Clear